�N����,����,�~����,�C��,���x,�C��,����,���ϕ���,�ő�u�ԕ���,�ő厞����,���˗�,�I�_���x,�n�����x,�ő啗���N��,DTYPE
"19/07/09","00:10",0.2,23.1,92.8,1000.5,333.7,0.7,1.3,341.2,0.00,21.9,24.9,"00:07:52",1
"19/07/09","00:20",0.0,23.0,92.9,1000.5,315.8,0.8,1.3,334.8,0.00,21.8,24.7,"00:14:56",1
"19/07/09","00:30",0.0,23.0,93.2,1000.5,298.6,0.5,0.8,315.0,0.00,21.9,24.7,"00:23:04",1
"19/07/09","00:40",0.0,23.0,93.4,1000.3,301.2,0.7,1.1,317.3,0.00,21.9,24.8,"00:37:44",1
"19/07/09","00:50",0.0,22.9,93.4,1000.3,291.9,0.7,1.2,322.1,0.00,21.8,24.7,"00:43:20",1
"19/07/09","01:00",0.0,22.8,93.6,1000.3,298.0,0.5,1.0,304.1,0.00,21.8,24.6,"00:53:36",1
"19/07/09","01:10",0.0,22.8,93.6,1000.3,338.6,0.7,1.3,337.6,0.00,21.8,24.6,"01:01:12",1
"19/07/09","01:20",0.0,22.8,93.9,1000.3,313.4,0.7,1.3,329.6,0.00,21.8,24.5,"01:11:52",1
"19/07/09","01:30",0.0,22.5,93.8,1000.0,327.4,1.2,1.8,345.3,0.00,21.5,24.5,"01:20:32",1
"19/07/09","01:40",0.0,22.5,94.1,1000.0,327.5,1.2,1.9,337.4,0.00,21.5,24.7,"01:36:24",1
"19/07/09","01:50",0.0,22.5,94.0,1000.0,273.2,0.6,0.9,258.5,0.00,21.5,24.5,"01:47:44",1
"19/07/09","02:00",0.0,22.5,94.2,1000.3,269.4,0.6,1.1,256.2,0.00,21.6,24.4,"01:58:56",1
"19/07/09","02:10",0.0,22.4,94.1,1000.3,309.1,0.6,1.6,323.9,0.00,21.4,24.4,"02:05:44",1
"19/07/09","02:20",0.0,22.4,94.3,999.8,268.2,0.3,1.0,312.2,0.00,21.5,24.4,"02:11:20",1
"19/07/09","02:30",0.0,22.5,94.4,1000.3,326.5,0.7,1.4,335.9,0.00,21.6,24.4,"02:28:32",1
"19/07/09","02:40",0.0,22.5,94.6,1000.0,311.8,0.8,1.2,337.2,0.00,21.6,24.3,"02:30:40",1
"19/07/09","02:50",0.0,22.4,94.4,1000.3,318.3,0.7,1.2,241.3,0.00,21.5,24.4,"02:40:16",1
"19/07/09","03:00",0.0,22.4,94.5,1000.3,293.7,0.7,1.4,344.6,0.00,21.5,24.2,"02:50:40",1
"19/07/09","03:10",0.0,22.3,94.4,1000.0,326.6,1.0,1.9,343.1,0.00,21.4,24.2,"03:04:56",1
"19/07/09","03:20",0.0,22.3,94.5,1000.3,256.9,0.8,1.9,241.8,0.00,21.4,24.2,"03:14:00",1
"19/07/09","03:30",0.0,22.3,94.7,1000.0,287.5,0.7,1.2,263.3,0.00,21.4,24.2,"03:20:48",1
"19/07/09","03:40",0.0,22.3,94.8,1000.3,308.4,0.7,1.3,337.7,0.00,21.5,24.3,"03:35:04",1
"19/07/09","03:50",0.0,22.2,94.7,1000.3,326.0,0.8,1.6,335.9,0.00,21.3,24.4,"03:47:28",1
"19/07/09","04:00",0.0,22.1,94.8,1000.3,285.7,1.0,1.6,312.0,0.00,21.3,24.0,"03:51:20",1
"19/07/09","04:10",0.0,22.0,94.9,1000.3,291.4,0.8,1.3,307.6,0.00,21.2,24.2,"04:00:32",1
"19/07/09","04:20",0.0,22.0,94.9,1000.5,294.1,0.8,1.2,301.6,0.00,21.2,24.0,"04:18:56",1
"19/07/09","04:30",0.0,22.1,95.1,1000.3,308.4,1.0,1.9,332.8,0.00,21.3,24.0,"04:27:44",1
"19/07/09","04:40",0.0,21.9,94.9,1000.5,342.7,1.1,1.8,335.4,0.00,21.1,23.8,"04:38:00",1
"19/07/09","04:50",0.0,21.9,95.2,1000.5,292.4,1.0,1.6,333.1,0.00,21.1,24.3,"04:40:56",1
"19/07/09","05:00",0.0,21.9,95.0,1000.3,322.6,1.0,1.6,341.3,0.00,21.1,24.2,"04:56:40",1
"19/07/09","05:10",0.0,21.8,95.2,1000.3,314.4,1.2,1.8,335.3,0.00,21.0,24.0,"05:05:20",1
"19/07/09","05:20",0.0,21.8,95.1,1000.3,284.3,0.7,1.2,318.7,0.00,21.0,24.0,"05:12:00",1
"19/07/09","05:30",0.0,21.7,95.2,1000.5,289.5,0.7,0.9,280.9,0.00,20.9,24.1,"05:20:16",1
"19/07/09","05:40",0.0,21.8,95.3,1000.5,292.2,0.8,1.4,325.0,0.00,21.1,24.0,"05:38:24",1
"19/07/09","05:50",0.0,21.7,95.3,1001.0,297.7,0.8,1.3,306.6,0.00,21.0,23.9,"05:41:12",1
"19/07/09","06:00",0.0,21.8,95.3,1000.8,320.7,1.0,1.6,315.3,0.00,21.1,23.7,"05:52:08",1
"19/07/09","06:10",0.0,21.8,95.4,1000.8,310.9,1.0,1.8,318.8,0.00,21.1,23.9,"06:01:44",1
"19/07/09","06:20",0.0,21.8,95.5,1001.0,327.8,1.3,2.1,342.6,0.00,21.1,23.7,"06:15:44",1
"19/07/09","06:30",0.0,21.9,95.4,1000.8,309.2,1.0,1.7,329.7,0.01,21.2,23.8,"06:22:56",1
"19/07/09","06:40",0.0,22.2,95.6,1000.8,304.9,0.8,1.3,336.0,0.02,21.5,23.9,"06:31:44",1
"19/07/09","06:50",0.0,22.0,95.1,1000.8,297.1,1.1,2.0,341.5,0.02,21.2,23.8,"06:44:56",1
"19/07/09","07:00",0.0,22.1,95.0,1001.0,301.5,1.1,1.9,311.1,0.01,21.3,23.9,"06:56:00",1
"19/07/09","07:10",0.0,22.2,95.0,1000.8,316.1,1.2,1.9,339.6,0.02,21.4,23.8,"07:00:02",1
"19/07/09","07:20",0.0,22.5,95.3,1000.8,302.0,1.2,2.0,315.5,0.04,21.8,23.9,"07:10:40",1
"19/07/09","07:30",0.0,22.5,94.6,1001.0,303.2,1.1,1.8,315.0,0.02,21.6,24.0,"07:21:36",1
"19/07/09","07:40",0.0,22.5,94.1,1001.2,294.6,0.6,1.3,311.6,0.01,21.5,24.0,"07:35:44",1
"19/07/09","07:50",0.0,22.7,94.7,1001.2,291.3,1.0,2.0,326.5,0.03,21.8,23.9,"07:43:20",1
"19/07/09","08:00",0.0,22.7,94.2,1001.2,278.6,0.8,1.3,313.9,0.04,21.8,23.9,"07:51:12",1
"19/07/09","08:10",0.0,22.8,93.8,1001.2,235.1,0.7,1.9,232.6,0.05,21.8,23.9,"08:05:44",1
"19/07/09","08:20",0.0,22.5,92.8,1001.2,222.0,0.7,2.7,124.4,0.05,21.3,24.1,"08:19:12",1
"19/07/09","08:30",0.0,22.7,92.2,1001.2,102.3,0.8,2.5,121.2,0.07,21.4,24.0,"08:29:12",1
"19/07/09","08:40",0.0,22.9,90.9,1001.7,133.2,0.8,1.4,113.0,0.07,21.4,24.1,"08:30:24",1
"19/07/09","08:50",0.0,23.9,87.1,1001.5,121.0,1.0,2.0,97.7,0.12,21.7,24.3,"08:42:56",1
"19/07/09","09:00",0.0,24.8,81.5,1001.7,115.8,1.2,3.1,106.3,0.18,21.5,24.4,"08:56:32",1
"19/07/09","09:10",0.0,24.9,79.0,1001.5,140.0,1.2,2.7,125.3,0.18,21.0,24.4,"09:04:56",1
"19/07/09","09:20",0.0,24.7,78.8,1001.2,154.9,1.0,2.9,137.5,0.12,20.8,24.6,"09:19:28",1
"19/07/09","09:30",0.0,25.0,78.2,1001.2,105.4,0.8,3.6,126.8,0.11,21.0,24.4,"09:20:48",1
"19/07/09","09:40",0.0,24.8,77.5,1001.5,164.0,1.1,2.6,118.7,0.06,20.6,24.6,"09:38:40",1
"19/07/09","09:50",0.0,24.8,78.0,1001.0,133.6,0.8,2.4,141.2,0.05,20.7,24.7,"09:49:36",1
"19/07/09","10:00",0.0,24.9,77.8,1001.2,86.6,0.8,2.2,101.2,0.05,20.8,24.6,"09:50:02",1
"19/07/09","10:10",0.0,24.6,77.7,1001.0,132.1,1.0,2.7,122.0,0.02,20.5,24.7,"10:00:24",1
"19/07/09","10:20",0.0,24.6,77.6,1001.2,66.2,0.7,2.1,130.9,0.02,20.5,24.6,"10:10:40",1
"19/07/09","10:30",0.0,24.7,77.0,1001.0,110.8,0.8,2.5,119.1,0.01,20.4,24.5,"10:29:52",1
"19/07/09","10:40",0.0,24.8,76.4,1001.2,94.5,1.3,2.7,108.2,0.03,20.4,24.5,"10:30:40",1
"19/07/09","10:50",0.0,24.5,76.9,1001.2,116.8,1.6,3.9,118.3,0.03,20.2,24.5,"10:48:16",1
"19/07/09","11:00",0.0,24.4,77.6,1001.2,96.7,1.8,3.3,114.2,0.04,20.3,24.6,"10:54:08",1
"19/07/09","11:10",0.0,24.4,78.5,1001.5,68.9,1.2,2.9,359.1,0.09,20.5,24.5,"11:05:36",1
"19/07/09","11:20",0.0,25.0,77.2,1001.0,35.2,1.0,4.1,0.1,0.20,20.8,24.8,"11:14:32",1
"19/07/09","11:30",0.0,24.9,77.5,1001.2,69.2,1.1,3.5,52.3,0.16,20.7,24.3,"11:23:12",1
"19/07/09","11:40",0.0,25.5,75.2,1000.5,45.7,1.2,3.6,34.1,0.26,20.8,24.6,"11:38:48",1
"19/07/09","11:50",0.0,26.3,74.9,1000.5,76.8,1.5,3.3,103.0,0.41,21.5,24.8,"11:48:00",1
"19/07/09","12:00",0.0,26.2,71.2,1000.5,97.6,1.8,3.6,119.2,0.53,20.6,25.2,"11:51:28",1
"19/07/09","12:10",0.0,25.8,73.8,1000.0,104.8,1.8,4.5,113.4,0.24,20.8,25.2,"12:04:24",1
"19/07/09","12:20",0.0,25.6,74.7,1000.0,128.9,1.7,3.5,112.6,0.18,20.8,25.3,"12:15:20",1
"19/07/09","12:30",0.0,25.8,73.5,1000.3,103.4,1.7,4.7,105.2,0.11,20.7,25.3,"12:23:04",1
"19/07/09","12:40",0.0,25.3,74.8,1000.5,107.4,2.0,4.3,111.9,0.10,20.5,25.6,"12:33:28",1
"19/07/09","12:50",0.0,25.7,74.8,1000.3,102.2,1.6,3.1,107.3,0.17,20.9,25.6,"12:47:12",1
"19/07/09","13:00",0.0,25.3,75.5,1000.3,120.1,2.1,3.9,122.6,0.13,20.7,25.6,"12:58:24",1
"19/07/09","13:10",0.0,25.8,75.7,999.8,116.7,2.1,4.2,123.5,0.23,21.2,25.7,"13:07:52",1
"19/07/09","13:20",0.0,25.7,74.0,1000.0,97.0,1.8,3.7,117.5,0.19,20.8,25.6,"13:12:08",1
"19/07/09","13:30",0.0,25.7,73.0,999.8,100.7,1.7,3.7,111.0,0.08,20.5,25.6,"13:22:56",1
"19/07/09","13:40",0.0,25.4,73.6,1000.0,117.0,1.7,4.7,115.3,0.07,20.4,25.4,"13:35:12",1
"19/07/09","13:50",0.0,25.2,74.5,1000.3,115.7,1.5,3.1,106.8,0.04,20.4,25.3,"13:42:16",1
"19/07/09","14:00",0.0,24.9,75.1,1000.0,112.3,2.1,5.4,116.1,0.02,20.2,25.4,"13:52:48",1
"19/07/09","14:10",0.0,24.7,76.3,1000.3,100.3,1.8,4.1,82.5,0.02,20.3,25.1,"14:00:24",1
"19/07/09","14:20",0.0,24.7,76.5,1000.3,93.2,1.2,3.7,109.4,0.03,20.3,25.2,"14:19:28",1
"19/07/09","14:30",0.0,24.7,76.7,1000.3,78.5,1.6,3.7,109.2,0.06,20.4,25.2,"14:26:56",1
"19/07/09","14:40",0.0,24.9,76.9,1000.3,80.2,1.2,3.2,28.1,0.08,20.6,25.3,"14:34:00",1
"19/07/09","14:50",0.0,25.0,77.0,1000.3,80.6,1.1,3.1,111.2,0.08,20.7,25.1,"14:43:12",1
"19/07/09","15:00",0.0,24.6,78.6,1000.5,69.9,0.7,2.1,52.1,0.06,20.7,25.1,"14:51:04",1
"19/07/09","15:10",0.0,24.1,79.9,1000.5,103.9,1.2,2.6,101.8,0.07,20.5,25.1,"15:04:08",1
"19/07/09","15:20",0.0,23.8,83.0,1000.5,106.4,1.1,2.4,109.0,0.10,20.8,24.8,"15:12:48",1
"19/07/09","15:30",0.0,23.9,83.8,1000.5,47.0,0.6,1.8,328.9,0.09,21.0,25.2,"15:25:28",1
"19/07/09","15:40",0.0,23.9,82.7,1000.3,308.5,0.8,2.0,345.8,0.09,20.8,25.2,"15:37:44",1
"19/07/09","15:50",0.0,24.3,81.1,1000.0,331.4,0.7,2.2,348.4,0.14,20.9,25.1,"15:48:00",1
"19/07/09","16:00",0.0,24.8,78.8,999.8,23.5,0.8,2.2,351.6,0.17,20.9,25.2,"15:50:02",1
"19/07/09","16:10",0.0,25.1,78.7,1000.0,56.5,0.8,2.5,151.4,0.16,21.2,25.2,"16:06:00",1
"19/07/09","16:20",0.0,24.9,78.7,1000.0,133.6,1.5,2.8,109.3,0.18,21.0,25.4,"16:16:48",1
"19/07/09","16:30",0.0,25.5,76.6,1000.0,106.0,1.0,2.6,142.0,0.12,21.1,25.5,"16:20:16",1
"19/07/09","16:40",0.0,25.2,75.6,999.8,125.7,1.6,3.1,136.5,0.08,20.6,25.5,"16:35:44",1
"19/07/09","16:50",0.0,25.1,74.8,999.8,100.2,1.6,2.9,110.5,0.08,20.4,25.4,"16:40:24",1
"19/07/09","17:00",0.0,24.9,75.7,1000.0,101.4,2.0,3.7,108.5,0.07,20.4,25.4,"16:52:00",1
"19/07/09","17:10",0.0,24.9,76.7,1000.0,126.0,1.5,3.5,131.1,0.05,20.6,25.5,"17:08:04",1
"19/07/09","17:20",0.0,24.8,76.9,1000.0,120.6,1.5,3.9,123.0,0.07,20.5,25.5,"17:14:00",1
"19/07/09","17:30",0.0,24.8,77.2,999.8,128.7,1.5,4.0,115.7,0.06,20.6,25.2,"17:23:52",1
"19/07/09","17:40",0.0,24.8,76.9,1000.0,117.9,1.8,4.1,93.9,0.07,20.5,25.2,"17:31:04",1
"19/07/09","17:50",0.0,24.7,75.9,999.8,112.7,1.5,3.1,113.3,0.05,20.2,25.1,"17:40:56",1
"19/07/09","18:00",0.0,24.8,75.2,999.8,93.0,1.3,2.8,110.8,0.05,20.2,25.2,"17:54:08",1
"19/07/09","18:10",0.0,24.9,74.9,999.8,104.9,1.5,2.6,105.5,0.05,20.2,25.1,"18:09:52",1
"19/07/09","18:20",0.0,24.9,75.1,1000.0,109.5,1.1,3.1,118.3,0.05,20.2,25.0,"18:17:20",1
"19/07/09","18:30",0.0,24.8,75.0,1000.0,114.9,1.3,3.4,104.9,0.03,20.1,25.1,"18:27:20",1
"19/07/09","18:40",0.0,24.6,75.2,1000.0,105.6,1.6,3.1,109.7,0.02,20.0,25.0,"18:38:24",1
"19/07/09","18:50",0.0,24.5,75.6,1000.3,101.3,1.7,3.5,120.4,0.01,19.9,25.0,"18:41:44",1
"19/07/09","19:00",0.0,24.6,75.4,999.8,63.0,1.1,2.5,8.7,0.00,20.0,25.0,"18:57:20",1
"19/07/09","19:10",0.0,24.5,75.9,1000.0,32.4,0.7,2.5,42.8,0.00,20.0,24.8,"19:06:32",1
"19/07/09","19:20",0.0,24.3,75.8,1000.0,104.9,1.3,3.5,108.8,0.00,19.8,24.8,"19:14:16",1
"19/07/09","19:30",0.0,24.4,75.4,1000.3,93.1,1.2,2.5,102.1,0.00,19.8,24.7,"19:25:20",1
"19/07/09","19:40",0.0,24.4,75.6,1000.0,96.3,1.1,2.5,114.3,0.00,19.9,24.6,"19:32:08",1
"19/07/09","19:50",0.0,24.2,75.7,1000.8,92.2,1.2,2.8,100.4,0.00,19.7,24.4,"19:46:24",1
"19/07/09","20:00",0.0,24.2,75.6,1000.5,78.5,1.1,2.7,106.8,0.00,19.7,24.7,"19:50:16",1
"19/07/09","20:10",0.0,24.2,75.4,1000.8,83.8,1.2,3.3,35.5,0.00,19.6,24.5,"20:06:00",1
"19/07/09","20:20",0.0,24.0,75.7,1001.0,102.4,1.1,3.2,92.8,0.00,19.5,24.4,"20:15:12",1
"19/07/09","20:30",0.0,24.0,76.0,1000.8,40.3,0.8,2.6,90.9,0.00,19.5,24.5,"20:20:08",1
"19/07/09","20:40",0.0,23.9,76.6,1000.8,33.5,0.6,1.7,162.1,0.00,19.6,24.2,"20:38:40",1
"19/07/09","20:50",0.0,23.8,77.3,1001.0,38.8,0.6,1.7,119.9,0.00,19.6,24.1,"20:44:08",1
"19/07/09","21:00",0.0,23.7,77.7,1001.2,330.6,0.6,1.2,324.9,0.00,19.6,24.2,"20:52:00",1
"19/07/09","21:10",0.0,23.6,78.1,1001.2,51.2,0.6,1.6,106.2,0.00,19.6,24.2,"21:09:52",1
"19/07/09","21:20",0.0,23.7,77.9,1001.5,83.4,1.0,2.5,116.5,0.00,19.7,24.2,"21:13:04",1
"19/07/09","21:30",0.0,23.8,77.2,1001.5,44.2,0.8,1.6,328.8,0.00,19.6,24.2,"21:29:44",1
"19/07/09","21:40",0.0,23.7,77.0,1001.7,20.3,0.6,1.7,10.7,0.00,19.5,24.1,"21:30:32",1
"19/07/09","21:50",0.0,23.7,77.1,1001.5,68.4,1.0,2.5,19.4,0.00,19.5,24.1,"21:42:48",1
"19/07/09","22:00",0.0,23.6,77.2,1001.7,84.8,1.2,2.6,95.8,0.00,19.4,24.0,"21:52:48",1
"19/07/09","22:10",0.0,23.5,77.6,1001.5,320.6,0.6,1.7,346.8,0.00,19.4,24.0,"22:04:00",1
"19/07/09","22:20",0.0,23.4,78.3,1001.7,152.9,0.7,2.0,102.4,0.00,19.4,23.9,"22:19:52",1
"19/07/09","22:30",0.0,23.5,78.2,1001.7,5.1,1.0,2.8,112.6,0.00,19.5,24.1,"22:20:48",1
"19/07/09","22:40",0.0,23.4,78.6,1001.5,83.2,0.7,2.6,116.5,0.00,19.5,23.9,"22:35:12",1
"19/07/09","22:50",0.0,23.4,78.2,1001.5,79.0,0.8,2.8,110.8,0.00,19.4,23.8,"22:49:28",1
"19/07/09","23:00",0.0,23.4,78.1,1002.2,114.1,1.1,2.4,99.5,0.00,19.4,23.9,"22:50:08",1
"19/07/09","23:10",0.0,23.4,78.4,1001.9,114.4,1.0,3.2,110.5,0.00,19.5,23.7,"23:04:56",1
"19/07/09","23:20",0.0,23.4,78.5,1002.2,30.3,0.7,1.8,55.2,0.00,19.5,23.8,"23:19:44",1
"19/07/09","23:30",0.0,23.3,78.4,1001.9,44.4,0.6,2.5,10.7,0.00,19.4,23.6,"23:20:16",1
"19/07/09","23:40",0.0,23.4,78.1,1002.2,47.2,0.8,2.4,90.8,0.00,19.4,23.6,"23:32:56",1
"19/07/09","23:50",0.0,23.3,78.4,1001.9,53.0,0.5,1.6,111.0,0.00,19.4,23.7,"23:41:04",1
"19/07/09","24:00",0.0,23.3,78.2,1001.7,5.9,0.8,2.1,42.6,0.00,19.3,23.7,"23:57:12",1
